Flag for U.S.A. Weather past 2 weeks in Fort Bragg, California, U.S.A.

Now
87 °F

Sunny.


Feels Like: 86 °F
Forecast: 57 / 67 °F
Wind: 14 mph from Southeast

Location: Ukiah Municipal

Current Time: Jul 5, 2015 at 2:30:20 PM

Latest Report: Jul 5, 2015 at 1:56 PM


Visibility: 10 mi

Pressure: 29.86 "Hg

Humidity: 36%

Dew point: 57 °F

Location of Fort BraggLocation

Historic Weather in Fort Bragg — Graph

°F

Fort Bragg temperature yesterday

Maximum temperature yesterday: 101 °F (at 2:56 PM)
Minimum temperature yesterday: 64 °F (at 6:56 AM)
Average temperature yesterday: 81 °F

Past Weeks' High & Low Weather Summary

 TemperatureHumidityPressure
High106 °F (Jun 30, 2:56 PM)90% (Jun 29, 5:56 AM)30.01 "Hg (Jun 29, 5:56 AM)
Low49 °F (Jun 22, 5:56 AM)13% (Jun 21, 2:56 PM)29.72 "Hg (Jul 4, 3:56 PM)
Average77 °F43%29.88 "Hg
* Reported Jun 20 12:56 PM — Jul 5 12:56 PM, Fort Bragg, Weather by CustomWeather, © 2015

Note: Actual official high and low records may vary slightly from our data, if they occured in-between our weather recording intervals... More about our weather records

Advertising

Fort Bragg weather history for previous 24 hours

 ConditionsComfort  
Time TempWeatherWind HumidityBarometerVisibility
12:56 PM
Sun, Jul 5
84 °FSunny.12 mph38%29.88 "Hg10 mi
11:56 AM81 °FSunny.9 mph42%29.89 "Hg10 mi
10:56 AM76 °FSunny.9 mph48%29.90 "Hg10 mi
9:56 AM69 °FSunny.10 mph61%29.92 "Hg10 mi
8:56 AM64 °FSunny.6 mph73%29.91 "Hg10 mi
7:56 AM61 °FSunny.8 mph78%29.91 "Hg10 mi
6:56 AM58 °FSunny.8 mph87%29.89 "Hg10 mi
5:56 AM58 °FClear.7 mph84%29.88 "Hg10 mi
4:56 AM58 °FClear.8 mph84%29.86 "Hg10 mi
3:56 AM60 °FClear.7 mph78%29.84 "Hg10 mi
2:56 AM62 °FClear.7 mph75%29.83 "Hg10 mi
1:56 AM65 °FClear.7 mph68%29.82 "Hg10 mi
12:56 AM68 °FClear.5 mph63%29.81 "Hg10 mi
11:56 PM
Sat, Jul 4
71 °FClear.3 mph57%29.82 "Hg10 mi
10:56 PM75 °FClear.3 mph50%29.81 "Hg10 mi
9:56 PM77 °FClear.No wind40%29.80 "Hg10 mi
8:56 PM83 °FSunny.3 mph33%29.79 "Hg10 mi
7:56 PM87 °FSunny.8 mph29%29.77 "Hg10 mi
6:56 PM92 °FSunny.7 mph25%29.75 "Hg10 mi
5:56 PM94 °FSunny.14 mph24%29.74 "Hg10 mi
4:56 PM97 °FSunny.14 mph24%29.73 "Hg10 mi
3:56 PM101 °FSunny.7 mph22%29.72 "Hg10 mi
2:56 PM101 °FSunny.12 mph21%29.73 "Hg10 mi
Weather by CustomWeather, © 2015

See weather overviewHow to use our weather pages